TimeEDT,TemperatureF,Dew PointF,Humidity,Sea Level PressureIn,VisibilityMPH,Wind Direction,Wind SpeedMPH,Gust SpeedMPH,PrecipitationIn,Events,Conditions,WindDirDegrees,DateUTC
12:54 AM,55.9,53.1,90,30.22,10.0,Calm,Calm,-,N/A,,Overcast,0,2012-10-26 04:54:00
2:27 AM,55.4,53.6,94,30.22,10.0,Calm,Calm,-,N/A,,Overcast,0,2012-10-26 06:27:00
2:54 AM,55.9,54.0,93,30.22,8.0,Calm,Calm,-,N/A,,Overcast,0,2012-10-26 06:54:00
3:54 AM,55.9,53.1,90,30.22,8.0,Calm,Calm,-,N/A,,Overcast,0,2012-10-26 07:54:00
4:54 AM,55.9,53.1,90,30.22,7.0,Calm,Calm,-,N/A,,Overcast,0,2012-10-26 08:54:00
5:25 AM,55.4,53.6,94,30.21,-9999.0,Calm,Calm,-,N/A,,Unknown,0,2012-10-26 09:25:00
5:54 AM,55.0,53.1,93,30.21,3.0,Calm,Calm,-,N/A,,Overcast,0,2012-10-26 09:54:00
6:54 AM,55.0,53.1,93,30.21,4.0,Calm,Calm,-,N/A,,Overcast,0,2012-10-26 10:54:00
7:54 AM,55.0,53.1,93,30.23,3.0,Calm,Calm,-,N/A,,Overcast,0,2012-10-26 11:54:00
8:33 AM,55.4,53.6,94,30.23,3.0,Calm,Calm,-,N/A,,Overcast,0,2012-10-26 12:33:00
8:54 AM,55.9,53.1,90,30.24,3.0,Calm,Calm,-,N/A,,Overcast,0,2012-10-26 12:54:00
9:54 AM,57.0,54.0,89,30.23,7.0,Calm,Calm,-,N/A,,Overcast,0,2012-10-26 13:54:00
10:54 AM,59.0,54.0,83,30.22,10.0,South,4.6,-,N/A,,Overcast,180,2012-10-26 14:54:00
11:54 AM,60.1,54.0,80,30.21,10.0,SSW,4.6,-,N/A,,Overcast,200,2012-10-26 15:54:00
12:54 PM,61.0,54.0,78,30.19,10.0,Calm,Calm,-,N/A,,Overcast,0,2012-10-26 16:54:00
1:54 PM,61.0,54.0,78,30.17,10.0,West,3.5,-,N/A,,Overcast,260,2012-10-26 17:54:00
2:54 PM,62.1,55.0,78,30.16,10.0,SW,5.8,-,N/A,,Overcast,220,2012-10-26 18:54:00
3:54 PM,61.0,54.0,78,30.14,10.0,WSW,4.6,-,N/A,,Overcast,250,2012-10-26 19:54:00
4:54 PM,61.0,55.0,81,30.13,10.0,SSW,3.5,-,N/A,,Overcast,210,2012-10-26 20:54:00
5:54 PM,60.1,54.0,80,30.13,10.0,Calm,Calm,-,N/A,,Overcast,0,2012-10-26 21:54:00
6:54 PM,59.0,55.0,87,30.13,10.0,Calm,Calm,-,N/A,,Overcast,0,2012-10-26 22:54:00
7:54 PM,57.9,55.0,90,30.14,9.0,Calm,Calm,-,N/A,,Overcast,0,2012-10-26 23:54:00
8:54 PM,57.9,55.0,90,30.14,8.0,Calm,Calm,-,N/A,,Overcast,0,2012-10-27 00:54:00
9:54 PM,57.9,55.0,90,30.14,7.0,Calm,Calm,-,N/A,,Overcast,0,2012-10-27 01:54:00
10:54 PM,57.9,55.0,90,30.13,7.0,Calm,Calm,-,N/A,,Overcast,0,2012-10-27 02:54:00
11:54 PM,57.0,55.0,93,30.12,7.0,Calm,Calm,-,N/A,,Overcast,0,2012-10-27 03:54:00